Waarnemingen

Advertentie
Mijn weer
Lerwick, Groot Brittannië (3005): temperatuur & dauwpunt: 14.11.2018 12:00:00 - 20.11.2018 12:00:00 (GMT)Lerwick, Groot Brittannië (3005): temperatuur -20cm & temperatuur -100cm: 14.11.2018 12:00:00 - 20.11.2018 12:00:00 (GMT)Lerwick, Groot Brittannië (3005): windsnelheid & windstoten: 14.11.2018 12:00:00 - 20.11.2018 12:00:00 (GMT)Lerwick, Groot Brittannië (3005): windrichting: 14.11.2018 12:00:00 - 20.11.2018 12:00:00 (GMT)Lerwick, Groot Brittannië (3005): luchtdruk: 14.11.2018 12:00:00 - 20.11.2018 12:00:00 (GMT)Lerwick, Groot Brittannië (3005): zicht: 14.11.2018 12:00:00 - 20.11.2018 12:00:00 (GMT)Lerwick, Groot Brittannië (3005): Zonneschijnduur: 14.11.2018 12:00:00 - 20.11.2018 12:00:00 (GMT)Lerwick, Groot Brittannië (3005): neerslag: 14.11.2018 12:00:00 - 20.11.2018 12:00:00 (GMT)
Datum & Tijd tt [°C] td [°C] tt -20cm [°C] tt -100cm [°C] ff [km/u] ff [kn] fx [km/u] fx [kn] dd ppp [hPa] vv [km] sd [min] rr [mm]
20.11.2018 12:00:00 - - - - - - - - - - - - -
20.11.2018 11:00:00 7,8 2,3 - - 22 12 - - ONO 1031,2 50 0 0,0
20.11.2018 10:00:00 7,5 4,3 - - 22 12 - - ONO 1031,6 35 0 0,0
20.11.2018 09:00:00 7,7 4,4 8,4 9,0 21 11 - - ONO 1031,9 40 0 0,0
20.11.2018 08:00:00 7,5 4,7 - - 21 11 - - ONO 1032,5 45 0 0,0
20.11.2018 07:00:00 7,6 2,4 - - 15 8 - - ONO 1032,7 50 0 0,0
20.11.2018 06:00:00 7,3 3,4 - - 21 11 - - O 1033,1 50 0 0,0
20.11.2018 05:00:00 6,9 5,6 - - 13 7 - - O 1033,5 30 0 0,0
20.11.2018 04:00:00 6,8 5,7 - - 21 11 - - O 1033,8 8 0 0,0
20.11.2018 03:00:00 7,1 5,7 - - 21 11 - - O 1034,0 16 0 0,2
20.11.2018 02:00:00 6,6 4,4 - - 9 5 - - NO 1034,3 50 0 0,0
20.11.2018 01:00:00 7,1 5,4 - - 21 11 - - ONO 1034,6 45 0 0,0
20.11.2018 00:00:00 7,4 4,4 - - 15 8 - - O 1035,1 50 - 0,0
19.11.2018 23:00:00 7,4 3,3 - - 16 9 - - O 1035,3 50 0 0,0
19.11.2018 22:00:00 7,4 2,9 - - 13 7 - - O 1035,3 50 0 0,0
19.11.2018 21:00:00 7,4 1,8 - - 13 7 - - ZO 1035,3 50 0 0,0
19.11.2018 20:00:00 7,4 2,4 - - 16 9 - - OZO 1035,3 50 0 0,0
19.11.2018 19:00:00 7,5 1,7 - - 15 8 - - ZO 1035,2 45 0 0,0
19.11.2018 18:00:00 7,7 3,2 - - 21 11 - - ZZO 1035,1 30 0 0,0
19.11.2018 17:00:00 7,6 2,5 - - 15 8 - - ZZO 1035,3 45 0 0,0
19.11.2018 16:00:00 7,7 3,0 - - 21 11 - - Z 1035,3 30 0 0,0
19.11.2018 15:00:00 7,8 3,1 - - 18 10 - - ZZO 1035,3 35 0 0,0
19.11.2018 14:00:00 8,0 3,6 - - 22 12 - - ZO 1035,2 40 0 0,0
19.11.2018 13:00:00 7,9 2,7 - - 24 13 - - ZZO 1035,3 35 0 0,0
19.11.2018 12:00:00 8,0 3,7 - - 24 13 - - ZZO 1035,5 35 0 0,0
19.11.2018 11:00:00 8,0 3,8 - - 21 11 - - ZZO 1035,6 25 0 0,0
19.11.2018 10:00:00 7,5 3,3 - - 22 12 - - ZZO 1035,9 30 30 0,0
19.11.2018 09:00:00 7,7 3,3 8,7 8,9 24 13 - - Z 1035,9 30 0 0,0
19.11.2018 08:00:00 7,9 3,9 - - 26 14 - - ZZO 1035,8 23 0 0,0
19.11.2018 07:00:00 8,1 4,8 - - 24 13 - - Z 1035,7 21 0 0,0
19.11.2018 06:00:00 8,0 5,0 - - 28 15 - - ZZO 1035,6 26 0 0,0
19.11.2018 05:00:00 7,9 6,2 - - 28 15 - - Z 1035,3 30 0 0,0
19.11.2018 04:00:00 8,2 6,8 - - 24 13 - - Z 1035,4 17 0 0,0
19.11.2018 03:00:00 8,2 5,6 - - 28 15 - - ZZO 1035,7 30 0 0,0
19.11.2018 02:00:00 7,7 4,6 - - 26 14 - - Z 1035,9 25 0 0,0
19.11.2018 01:00:00 7,5 4,8 - - 26 14 - - Z 1036,1 17 0 0,0
19.11.2018 00:00:00 7,4 4,9 - - 24 13 - - Z 1036,2 17 - 0,0
18.11.2018 23:00:00 7,4 5,0 - - 24 13 - - Z 1036,6 17 0 0,0
18.11.2018 22:00:00 7,6 5,0 - - 24 13 - - Z 1036,8 15 0 0,0
18.11.2018 21:00:00 7,7 5,3 - - 26 14 - - Z 1036,8 19 0 0,0
18.11.2018 20:00:00 7,7 5,6 - - 26 14 - - ZZO 1036,8 15 0 0,0
18.11.2018 19:00:00 7,5 5,2 - - 29 16 - - Z 1036,9 16 0 0,0
18.11.2018 18:00:00 7,9 5,7 - - 26 14 - - ZZO 1037,0 13 0 0,0
18.11.2018 17:00:00 8,2 5,6 - - 28 15 - - ZZO 1037,1 15 0 0,0
18.11.2018 16:00:00 8,3 5,9 - - 26 14 - - Z 1037,1 16 0 0,0
18.11.2018 15:00:00 8,5 6,2 - - 28 15 - - ZZO 1037,1 14 0 0,0
18.11.2018 14:00:00 8,4 6,2 - - 26 14 - - Z 1037,1 16 0 0,0
18.11.2018 13:00:00 8,5 6,2 - - 28 15 - - Z 1037,2 13 6 0,0
18.11.2018 12:00:00 8,5 6,1 - - 29 16 - - ZZO 1037,2 15 0 0,0
18.11.2018 11:00:00 8,4 6,1 - - 28 15 - - ZZO 1037,4 15 0 0,0
18.11.2018 10:00:00 8,2 6,1 - - 29 16 - - Z 1037,1 13 0 0,0
18.11.2018 09:00:00 8,0 6,0 8,7 8,9 31 17 - - Z 1036,8 12 0 0,0
18.11.2018 08:00:00 8,1 6,1 - - 35 19 - - ZZO 1037,0 12 0 0,0
18.11.2018 07:00:00 8,1 6,1 - - 34 18 - - Z 1036,7 12 0 0,0
18.11.2018 06:00:00 7,9 6,0 - - 35 19 46 25 ZZO 1036,3 11 0 0,0
18.11.2018 05:00:00 8,2 6,4 - - 35 19 46 25 ZZO 1036,7 10 0 0,0
18.11.2018 04:00:00 8,1 6,2 - - 29 16 - - ZZO 1036,7 11 0 0,0
18.11.2018 03:00:00 8,4 6,5 - - 24 13 - - Z 1036,6 11 0 0,0
18.11.2018 02:00:00 8,6 7,0 - - 24 13 - - ZZO 1036,1 9 0 0,0
18.11.2018 01:00:00 8,7 6,9 - - 29 16 - - Z 1035,9 11 0 0,0
18.11.2018 00:00:00 8,9 7,1 - - 34 18 - - ZZO 1035,9 11 - 0,0
17.11.2018 23:00:00 8,8 6,8 - - 35 19 - - ZZO 1035,7 11 0 0,0
17.11.2018 22:00:00 8,9 6,9 - - 35 19 46 25 ZZO 1035,8 11 0 0,0
17.11.2018 21:00:00 8,7 6,4 - - 37 20 46 25 ZZO 1036,0 12 0 0,0
17.11.2018 20:00:00 8,7 6,4 - - 37 20 48 26 ZZO 1035,9 10 0 0,0
17.11.2018 19:00:00 8,3 6,1 - - 37 20 46 25 ZZO 1035,4 11 0 0,0
17.11.2018 18:00:00 8,3 6,0 - - 31 17 - - ZZO 1035,2 12 0 0,0
17.11.2018 17:00:00 8,4 6,2 - - 34 18 46 25 ZZO 1035,0 12 0 0,0
17.11.2018 16:00:00 8,4 6,7 - - 31 17 46 25 ZZO 1034,5 9 0 0,0
17.11.2018 15:00:00 8,2 6,6 - - 29 16 46 25 ZZO 1034,5 9 0 0,0
17.11.2018 14:00:00 8,3 7,0 - - 31 17 46 25 ZZO 1034,3 8 0 0,0
17.11.2018 13:00:00 8,1 7,3 - - 31 17 46 25 ZZO 1034,5 7 0 0,0
17.11.2018 12:00:00 8,2 7,8 - - 31 17 50 27 ZZO 1034,5 3,8 0 0,0
17.11.2018 11:00:00 8,2 8,0 - - 34 18 46 25 ZZO 1034,4 2,3 0 0,0
17.11.2018 10:00:00 8,6 8,5 - - 28 15 - - ZZO 1034,3 - 0 0,0
17.11.2018 09:00:00 8,6 8,4 8,7 8,9 31 17 - - ZZO 1034,1 2,2 0 0,0
17.11.2018 08:00:00 8,9 8,5 - - 35 19 - - ZZO 1033,6 2,5 0 0,0
17.11.2018 07:00:00 9,2 8,4 - - 35 19 - - ZZO 1032,9 6 0 0,0
17.11.2018 06:00:00 8,9 7,9 - - 29 16 46 25 Z 1032,4 8 0 0,0
17.11.2018 05:00:00 8,9 8,0 - - 29 16 46 25 Z 1032,0 16 0 0,0
17.11.2018 04:00:00 9,2 9,0 - - 34 18 - - ZZO 1031,9 8 0 0,0
17.11.2018 03:00:00 9,6 9,5 - - 29 16 - - ZZO 1031,9 2,0 0 0,0
17.11.2018 02:00:00 9,7 9,6 - - 26 14 - - ZZO 1031,7 4,6 0 0,0
17.11.2018 01:00:00 9,6 9,5 - - 34 18 - - Z 1031,2 3,8 0 0,2
17.11.2018 00:00:00 9,5 9,4 - - 26 14 - - Z 1031,0 0,1 - 0,0
16.11.2018 23:00:00 9,3 9,3 - - 22 12 - - Z 1030,4 0,1 0 0,0
16.11.2018 22:00:00 9,5 9,5 - - 22 12 - - Z 1030,1 0,1 0 0,0
16.11.2018 21:00:00 9,7 9,6 - - 21 11 - - Z 1029,5 0,4 0 0,0
16.11.2018 20:00:00 9,4 9,3 - - 21 11 - - ZZO 1028,9 0,1 0 0,0
16.11.2018 19:00:00 9,3 9,2 - - 18 10 - - ZZO 1028,4 0,1 0 0,0
16.11.2018 18:00:00 9,7 9,4 - - 18 10 - - Z 1027,6 2,6 0 0,0
16.11.2018 17:00:00 9,1 8,6 - - 15 8 - - Z 1026,9 9 0 0,0
16.11.2018 16:00:00 9,2 8,7 - - 15 8 - - Z 1026,2 9 0 0,0
16.11.2018 15:00:00 8,9 8,2 - - 21 11 - - Z 1025,4 12 0 0,0
16.11.2018 14:00:00 9,7 9,1 - - 22 12 - - Z 1025,2 9 42 0,0
16.11.2018 13:00:00 10,2 8,8 - - 22 12 - - Z 1024,8 12 60 0,0
16.11.2018 12:00:00 10,3 8,3 - - 15 8 - - Z 1024,6 10 60 0,0
16.11.2018 11:00:00 9,5 7,8 - - 16 9 - - Z 1024,1 12 54 0,0
16.11.2018 10:00:00 9,0 7,0 - - 11 6 - - ZZW 1023,5 11 60 0,0
16.11.2018 09:00:00 8,3 6,6 8,9 8,9 16 9 - - Z 1022,9 12 18 0,0
16.11.2018 08:00:00 7,9 6,2 - - 13 7 - - ZZW 1022,0 12 0 0,0
16.11.2018 07:00:00 8,3 6,8 - - 18 10 - - ZZW 1020,7 13 0 0,0
16.11.2018 06:00:00 9,1 6,3 - - 29 16 - - ZW 1019,8 22 0 0,0
16.11.2018 05:00:00 9,2 5,7 - - 31 17 - - ZZW 1018,2 19 0 0,0
16.11.2018 04:00:00 9,0 7,1 - - 26 14 - - ZZW 1017,5 9 0 0,0
16.11.2018 03:00:00 9,4 6,7 - - 34 18 46 25 ZZW 1016,4 12 0 0,0
16.11.2018 02:00:00 9,5 6,5 - - 39 21 55 30 ZW 1015,6 23 0 0,0
16.11.2018 01:00:00 9,9 7,2 - - 41 22 61 33 ZW 1014,4 19 0 0,0
16.11.2018 00:00:00 10,5 7,2 - - 48 26 63 34 ZW 1012,9 24 - 0,0
15.11.2018 23:00:00 10,7 8,6 - - 48 26 87 47 ZW 1011,6 10 0 0,0
15.11.2018 22:00:00 11,3 8,4 - - 57 31 81 44 ZZW 1010,4 9 0 0,0
15.11.2018 21:00:00 10,9 7,9 - - 50 27 63 34 Z 1009,2 9 0 0,0
15.11.2018 20:00:00 10,0 8,2 - - 44 24 70 38 Z 1008,9 8 0 0,0
15.11.2018 19:00:00 10,2 7,9 - - 52 28 70 38 Z 1008,2 8 0 0,0
15.11.2018 18:00:00 10,1 8,3 - - 48 26 65 35 Z 1008,3 8 0 0,0
15.11.2018 17:00:00 9,9 8,6 - - 41 22 59 32 Z 1008,4 8 0 0,0
15.11.2018 16:00:00 9,8 8,8 - - 42 23 59 32 Z 1008,5 8 0 0,0
15.11.2018 15:00:00 10,3 9,2 - - 37 20 50 27 Z 1009,3 8 54 0,0
15.11.2018 14:00:00 10,4 9,5 - - 34 18 52 28 Z 1009,7 8 0 0,0
15.11.2018 13:00:00 10,5 9,7 - - 35 19 46 25 Z 1010,5 7 0 0,0
15.11.2018 12:00:00 10,5 9,8 - - 29 16 - - Z 1010,9 6 6 0,0
15.11.2018 11:00:00 10,7 10,0 - - 24 13 - - Z 1011,1 7 0 0,0
15.11.2018 10:00:00 10,5 9,9 - - 21 11 - - Z 1011,1 5 0 0,0
15.11.2018 09:00:00 10,3 9,8 8,7 8,9 16 9 - - Z 1010,8 8 0 0,0
15.11.2018 08:00:00 10,7 9,8 - - 24 13 - - Z 1010,8 8 0 0,0
15.11.2018 07:00:00 10,6 9,6 - - 34 18 59 32 WZW 1009,7 8 0 0,0
15.11.2018 06:00:00 11,7 9,6 - - 50 27 68 37 ZW 1008,8 12 0 0,0
15.11.2018 05:00:00 13,2 9,3 - - 44 24 67 36 ZZW 1008,3 35 0 0,0
15.11.2018 04:00:00 12,8 9,4 - - 46 25 63 34 ZZW 1007,6 29 0 0,0
15.11.2018 03:00:00 13,3 9,7 - - 42 23 65 35 ZZW 1007,6 22 0 0,0
15.11.2018 02:00:00 13,6 9,8 - - 50 27 74 40 ZZW 1007,0 30 0 0,0
15.11.2018 01:00:00 12,6 9,8 - - 42 23 61 33 ZZW 1006,7 23 0 0,0
15.11.2018 00:00:00 11,0 10,1 - - 28 15 - - Z 1006,9 10 - 0,0
14.11.2018 23:00:00 11,3 10,2 - - 31 17 - - Z 1006,6 13 0 0,0
14.11.2018 22:00:00 11,2 10,3 - - 18 10 - - Z 1006,0 11 0 0,0
14.11.2018 21:00:00 11,0 10,1 - - 22 12 - - Z 1005,5 12 0 0,0
14.11.2018 20:00:00 12,2 11,0 - - 24 13 - - ZZW 1005,4 20 0 0,0
14.11.2018 19:00:00 10,0 9,8 - - 18 10 - - Z 1005,3 3,8 0 0,0
14.11.2018 18:00:00 9,8 9,6 - - 18 10 - - Z 1005,1 2,9 0 0,0
14.11.2018 17:00:00 9,8 9,5 - - 24 13 - - Z 1005,0 4,6 0 0,4
14.11.2018 16:00:00 9,8 9,4 - - 26 14 - - Z 1005,2 6 0 0,0
14.11.2018 15:00:00 9,8 9,3 - - 22 12 - - Z 1005,4 6 0 0,0
14.11.2018 14:00:00 9,9 9,2 - - 26 14 - - Z 1005,6 7 0 0,0
14.11.2018 13:00:00 9,9 9,2 - - 31 17 - - Z 1005,8 6 0 0,0
14.11.2018 12:00:00 10,1 9,2 - - 31 17 - - Z 1006,4 6 0 0,0

tt = temperatuur
td = dauwpunt
tt -20cm = temperatuur -20cm
tt -100cm = temperatuur -100cm
ff = windsnelheid
fx = windstoten
dd = windrichting
ppp = luchtdruk
vv = zicht
sd = Zonneschijnduur
rr = neerslag

Weerstations in de omgeving